• In Uzbekistan
  • List of Countries
  • For 7 days
  • Water Temperature
  • Satellite Maps
  • Weather Map
  • Weather Widgets
  • user-avatar
    Login

    Hourly Weather Krasnyy Uryush

    Today, 24 September, Monday

    Time Temperature Precipitation Wind Pressure Humidity
    00:00 +14°C° 0 mm 2 mps 748 mmHg 96%
    01:00 +14°C° 0 mm 2 mps 748 mmHg 96%
    02:00 +13°C° 0 mm 3 mps 748 mmHg 96%
    03:00 +13°C° 0 mm 3 mps 747 mmHg 96%
    04:00 +13°C° 0 mm 2 mps 747 mmHg 97%
    05:00 +13°C° 0.1 mm 2 mps 747 mmHg 97%
    06:00 +13°C° 0.1 mm 2 mps 747 mmHg 97%
    07:00 +12°C° 0.1 mm 3 mps 747 mmHg 97%
    08:00 +14°C° 0 mm 3 mps 747 mmHg 92%
    09:00 +15°C° 0 mm 4 mps 747 mmHg 87%
    10:00 +18°C° 0 mm 4 mps 747 mmHg 81%
    11:00 +19°C° 0.1 mm 4 mps 747 mmHg 76%
    12:00 +20°C° 0.1 mm 4 mps 747 mmHg 72%
    13:00 +21°C° 0.1 mm 4 mps 747 mmHg 67%
    14:00 +21°C° 0.2 mm 4 mps 747 mmHg 68%
    15:00 +21°C° 0.2 mm 4 mps 747 mmHg 69%
    16:00 +21°C° 0.2 mm 4 mps 746 mmHg 70%
    17:00 +19°C° 0.1 mm 3 mps 746 mmHg 77%
    18:00 +18°C° 0.1 mm 3 mps 747 mmHg 83%
    19:00 +16°C° 0.1 mm 3 mps 747 mmHg 89%
    20:00 +16°C° 0 mm 3 mps 747 mmHg 89%
    21:00 +14°C° 0 mm 3 mps 747 mmHg 90%
    22:00 +14°C° 0 mm 3 mps 747 mmHg 91%
    23:00 +13°C° 0 mm 3 mps 747 mmHg 90%

    Tomorrow, 25 September, Tuesday

    Time Temperature Precipitation Wind Pressure Humidity
    00:00 +13°C° 0 mm 3 mps 747 mmHg 90%
    01:00 +12°C° 0 mm 3 mps 747 mmHg 90%
    02:00 +12°C° 0 mm 3 mps 747 mmHg 89%
    03:00 +12°C° 0 mm 3 mps 747 mmHg 88%
    04:00 +12°C° 0 mm 3 mps 747 mmHg 87%
    05:00 +12°C° 0 mm 3 mps 747 mmHg 85%
    06:00 +12°C° 0 mm 3 mps 747 mmHg 83%
    07:00 +12°C° 0 mm 3 mps 747 mmHg 81%
    08:00 +13°C° 0 mm 4 mps 747 mmHg 73%
    09:00 +15°C° 0 mm 5 mps 747 mmHg 66%
    10:00 +17°C° 0 mm 6 mps 746 mmHg 58%
    11:00 +19°C° 0 mm 6 mps 746 mmHg 55%
    12:00 +20°C° 0 mm 6 mps 746 mmHg 52%
    13:00 +21°C° 0 mm 7 mps 746 mmHg 49%
    14:00 +21°C° 0 mm 6 mps 746 mmHg 51%
    15:00 +21°C° 0 mm 5 mps 746 mmHg 53%
    16:00 +21°C° 0 mm 5 mps 746 mmHg 55%
    17:00 +19°C° 0 mm 4 mps 746 mmHg 58%
    18:00 +18°C° 0 mm 4 mps 746 mmHg 61%
    19:00 +17°C° 0 mm 4 mps 746 mmHg 65%
    20:00 +15°C° 0 mm 4 mps 746 mmHg 66%
    21:00 +15°C° 0 mm 4 mps 746 mmHg 67%
    22:00 +14°C° 0 mm 4 mps 746 mmHg 68%
    23:00 +14°C° 0 mm 4 mps 746 mmHg 69%

    Day after tomorrow, 26 September, Wednesday

    Time Temperature Precipitation Wind Pressure Humidity
    00:00 +14°C° 0 mm 4 mps 746 mmHg 70%
    01:00 +13°C° 0 mm 4 mps 746 mmHg 71%
    02:00 +13°C° 0 mm 4 mps 746 mmHg 70%
    03:00 +13°C° 0 mm 4 mps 746 mmHg 69%
    04:00 +13°C° 0 mm 5 mps 746 mmHg 68%
    05:00 +13°C° 0.1 mm 5 mps 746 mmHg 69%
    06:00 +13°C° 0.1 mm 5 mps 746 mmHg 70%
    07:00 +13°C° 0.1 mm 5 mps 746 mmHg 70%
    08:00 +14°C° 0 mm 5 mps 747 mmHg 68%
    09:00 +15°C° 0 mm 6 mps 747 mmHg 65%
    10:00 +16°C° 0 mm 6 mps 747 mmHg 62%
    11:00 +16°C° 0 mm 6 mps 747 mmHg 60%
    12:00 +17°C° 0 mm 6 mps 747 mmHg 58%
    13:00 +17°C° 0 mm 6 mps 748 mmHg 56%
    14:00 +16°C° 0.1 mm 5 mps 748 mmHg 62%
    15:00 +15°C° 0.1 mm 4 mps 748 mmHg 67%
    16:00 +14°C° 0.1 mm 3 mps 748 mmHg 73%
    17:00 +13°C° 0.5 mm 3 mps 748 mmHg 79%
    18:00 +13°C° 0.5 mm 2 mps 748 mmHg 85%
    19:00 +12°C° 0.5 mm 2 mps 749 mmHg 92%
    20:00 +10°C° 0.1 mm 2 mps 749 mmHg 92%
    21:00 +10°C° 0.1 mm 2 mps 749 mmHg 92%
    22:00 +10°C° 0.1 mm 2 mps 749 mmHg 92%
    23:00 +10°C° 0.3 mm 2 mps 749 mmHg 93%

    27 September, Thursday

    Time Temperature Precipitation Wind Pressure Humidity
    00:00 +9°C° 0.3 mm 2 mps 749 mmHg 93%
    01:00 +9°C° 0.3 mm 2 mps 749 mmHg 94%
    02:00 +9°C° 0.4 mm 2 mps 748 mmHg 94%
    03:00 +9°C° 0.4 mm 2 mps 748 mmHg 94%
    04:00 +8°C° 0.4 mm 2 mps 748 mmHg 94%
    05:00 +8°C° 0.2 mm 3 mps 748 mmHg 94%
    06:00 +8°C° 0.2 mm 3 mps 748 mmHg 93%
    07:00 +8°C° 0.2 mm 3 mps 748 mmHg 93%
    08:00 +8°C° 0.1 mm 4 mps 748 mmHg 88%
    09:00 +8°C° 0.1 mm 4 mps 748 mmHg 83%
    10:00 +9°C° 0.1 mm 5 mps 748 mmHg 78%
    11:00 +9°C° 0 mm 5 mps 747 mmHg 75%
    12:00 +9°C° 0 mm 5 mps 747 mmHg 72%
    13:00 +9°C° 0 mm 5 mps 746 mmHg 69%
    14:00 +9°C° 0 mm 5 mps 746 mmHg 70%
    15:00 +9°C° 0 mm 5 mps 746 mmHg 72%
    16:00 +8°C° 0 mm 4 mps 746 mmHg 74%
    17:00 +7°C° 0 mm 4 mps 745 mmHg 75%
    18:00 +7°C° 0 mm 4 mps 745 mmHg 77%
    19:00 +6°C° 0 mm 4 mps 745 mmHg 79%
    20:00 +6°C° 0 mm 4 mps 745 mmHg 77%
    21:00 +6°C° 0 mm 4 mps 744 mmHg 74%
    22:00 +6°C° 0 mm 5 mps 744 mmHg 72%
    23:00 +6°C° 0 mm 5 mps 743 mmHg 72%

    28 September, Friday

    Time Temperature Precipitation Wind Pressure Humidity
    00:00 +5°C° 0 mm 5 mps 742 mmHg 71%
    01:00 +4°C° 0 mm 6 mps 742 mmHg 70%
    02:00 +4°C° 0.5 mm 6 mps 741 mmHg 75%
    03:00 +4°C° 0.5 mm 6 mps 740 mmHg 79%
    04:00 +4°C° 0.5 mm 6 mps 740 mmHg 83%
    05:00 +4°C° 0.9 mm 6 mps 739 mmHg 85%
    06:00 +4°C° 0.9 mm 6 mps 739 mmHg 87%
    07:00 +3°C° 0.9 mm 6 mps 739 mmHg 89%
    08:00 +4°C° 0.4 mm 6 mps 739 mmHg 88%
    09:00 +5°C° 0.4 mm 5 mps 739 mmHg 88%
    10:00 +6°C° 0.4 mm 5 mps 739 mmHg 87%
    11:00 +7°C° 0.5 mm 6 mps 739 mmHg 83%
    12:00 +7°C° 0.5 mm 6 mps 739 mmHg 78%
    13:00 +8°C° 0.5 mm 6 mps 739 mmHg 74%
    14:00 +8°C° 0.3 mm 6 mps 740 mmHg 72%
    15:00 +8°C° 0.3 mm 5 mps 740 mmHg 71%
    16:00 +8°C° 0.3 mm 5 mps 740 mmHg 70%
    17:00 +7°C° 0 mm 4 mps 741 mmHg 74%
    18:00 +6°C° 0 mm 4 mps 741 mmHg 78%
    19:00 +5°C° 0 mm 3 mps 741 mmHg 83%
    20:00 +5°C° 0 mm 3 mps 741 mmHg 84%
    21:00 +5°C° 0 mm 3 mps 741 mmHg 85%
    22:00 +5°C° 0 mm 4 mps 741 mmHg 86%
    23:00 +5°C° 0.7 mm 4 mps 740 mmHg 88%

    29 September, Saturday

    Time Temperature Precipitation Wind Pressure Humidity
    00:00 +5°C° 0.7 mm 5 mps 739 mmHg 91%
    01:00 +5°C° 0.7 mm 5 mps 737 mmHg 93%
    02:00 +7°C° 1.7 mm 6 mps 736 mmHg 92%
    03:00 +8°C° 1.7 mm 7 mps 735 mmHg 92%
    04:00 +9°C° 1.7 mm 7 mps 734 mmHg 92%
    05:00 +7°C° 0.5 mm 8 mps 735 mmHg 89%
    06:00 +7°C° 0.5 mm 8 mps 735 mmHg 87%
    07:00 +6°C° 0.5 mm 9 mps 735 mmHg 85%
    08:00 +6°C° 0.1 mm 9 mps 736 mmHg 83%
    09:00 +5°C° 0.1 mm 9 mps 738 mmHg 82%
    10:00 +5°C° 0.1 mm 9 mps 739 mmHg 81%
    11:00 +5°C° 0 mm 8 mps 740 mmHg 77%
    12:00 +6°C° 0 mm 8 mps 742 mmHg 74%
    13:00 +6°C° 0 mm 7 mps 743 mmHg 71%
    14:00 +6°C° 0 mm 7 mps 744 mmHg 69%
    15:00 +7°C° 0 mm 6 mps 745 mmHg 67%
    16:00 +8°C° 0 mm 5 mps 746 mmHg 65%
    17:00 +6°C° 0 mm 4 mps 747 mmHg 70%
    18:00 +5°C° 0 mm 3 mps 747 mmHg 74%
    19:00 +5°C° 0 mm 2 mps 748 mmHg 79%
    20:00 +5°C° 0 mm 2 mps 748 mmHg 81%
    21:00 +4°C° 0 mm 2 mps 749 mmHg 83%
    22:00 +3°C° 0 mm 2 mps 749 mmHg 85%
    23:00 +4°C° 0 mm 1 mps 749 mmHg 86%
    Show more